When you browse on this site, cookies collect data to enhance your experience and personalize the content and advertising you see.
Visit our Privacy Policy to learn more. By continuing to use the site, you agree to this use of cookies and data.
  • In Latvia
  • List of Countries
  • For 7 days
  • Water Temperature
  • Satellite Maps
  • Weather Map
  • Weather Widgets
  • user-avatar
    Login

    Hourly Weather Lugano

    Today, 15 July, Monday

    Time Temperature Precipitation Wind Pressure Humidity
    00:00 +18°C° 3.4 mm 2 mps 733 mmHg 91%
    01:00 +17°C° 0 mm 3 mps 733 mmHg 93%
    02:00 +16°C° 6 mm 3 mps 733 mmHg 93%
    03:00 +16°C° 6 mm 3 mps 733 mmHg 93%
    04:00 +14°C° 6 mm 3 mps 732 mmHg 94%
    05:00 +14°C° 3.2 mm 3 mps 733 mmHg 93%
    06:00 +13°C° 3.2 mm 3 mps 733 mmHg 93%
    07:00 +14°C° 0 mm 3 mps 733 mmHg 96%
    08:00 +16°C° 0.3 mm 2 mps 733 mmHg 88%
    09:00 +18°C° 0.3 mm 2 mps 734 mmHg 81%
    10:00 +21°C° 0.3 mm 1 mps 734 mmHg 74%
    11:00 +21°C° 0.1 mm 2 mps 734 mmHg 67%
    12:00 +23°C° 0.1 mm 2 mps 734 mmHg 61%
    13:00 +26°C° 0 mm 1 mps 734 mmHg 51%
    14:00 +25°C° 0.3 mm 1 mps 734 mmHg 56%
    15:00 +24°C° 0.3 mm 2 mps 734 mmHg 62%
    16:00 +23°C° 0.3 mm 2 mps 734 mmHg 68%
    17:00 +23°C° 0.2 mm 2 mps 735 mmHg 72%
    18:00 +22°C° 0.2 mm 1 mps 735 mmHg 76%
    19:00 +22°C° 0.2 mm 1 mps 735 mmHg 80%
    20:00 +20°C° 0 mm 1 mps 735 mmHg 82%
    21:00 +19°C° 0 mm 1 mps 735 mmHg 85%
    22:00 +18°C° 0 mm 1 mps 735 mmHg 87%
    23:00 +18°C° 0 mm 1 mps 736 mmHg 87%

    Tomorrow, 16 July, Tuesday

    Time Temperature Precipitation Wind Pressure Humidity
    00:00 +17°C° 0 mm 2 mps 736 mmHg 86%
    01:00 +16°C° 0 mm 2 mps 736 mmHg 85%
    02:00 +16°C° 0 mm 2 mps 736 mmHg 84%
    03:00 +16°C° 0 mm 2 mps 736 mmHg 83%
    04:00 +15°C° 0 mm 2 mps 735 mmHg 82%
    05:00 +16°C° 0 mm 2 mps 735 mmHg 79%
    06:00 +18°C° 0 mm 2 mps 735 mmHg 75%
    07:00 +19°C° 0 mm 2 mps 735 mmHg 72%
    08:00 +22°C° 0 mm 1 mps 736 mmHg 63%
    09:00 +25°C° 0 mm 1 mps 736 mmHg 53%
    10:00 +28°C° 0 mm 1 mps 736 mmHg 44%
    11:00 +28°C° 0 mm 1 mps 736 mmHg 42%
    12:00 +29°C° 0 mm 2 mps 736 mmHg 41%
    13:00 +29°C° 0 mm 2 mps 736 mmHg 39%
    14:00 +29°C° 0 mm 2 mps 736 mmHg 40%
    15:00 +29°C° 0 mm 2 mps 735 mmHg 41%
    16:00 +29°C° 0 mm 2 mps 735 mmHg 42%
    17:00 +28°C° 0 mm 2 mps 735 mmHg 51%
    18:00 +27°C° 0 mm 1 mps 735 mmHg 59%
    19:00 +25°C° 0 mm 1 mps 735 mmHg 68%
    20:00 +24°C° 0 mm 1 mps 736 mmHg 72%
    21:00 +22°C° 0 mm 1 mps 736 mmHg 76%
    22:00 +21°C° 0 mm 1 mps 736 mmHg 80%
    23:00 +20°C° 0 mm 1 mps 736 mmHg 79%

    Day after tomorrow, 17 July, Wednesday

    Time Temperature Precipitation Wind Pressure Humidity
    00:00 +20°C° 0 mm 1 mps 736 mmHg 79%
    01:00 +20°C° 0 mm 1 mps 736 mmHg 79%
    02:00 +19°C° 0 mm 1 mps 736 mmHg 78%
    03:00 +19°C° 0 mm 1 mps 735 mmHg 78%
    04:00 +19°C° 0 mm 1 mps 735 mmHg 78%
    05:00 +20°C° 0 mm 1 mps 735 mmHg 76%
    06:00 +21°C° 0 mm 1 mps 735 mmHg 74%
    07:00 +22°C° 0 mm 1 mps 735 mmHg 72%
    08:00 +24°C° 0 mm 1 mps 735 mmHg 66%
    09:00 +26°C° 0 mm 1 mps 735 mmHg 59%
    10:00 +28°C° 0 mm 1 mps 735 mmHg 53%
    11:00 +29°C° 0.2 mm 2 mps 735 mmHg 52%
    12:00 +29°C° 0.2 mm 2 mps 734 mmHg 51%
    13:00 +30°C° 0.2 mm 2 mps 734 mmHg 50%
    14:00 +29°C° 0.4 mm 2 mps 734 mmHg 52%
    15:00 +29°C° 0.4 mm 2 mps 734 mmHg 54%
    16:00 +29°C° 0.4 mm 1 mps 734 mmHg 56%
    17:00 +27°C° 0.6 mm 1 mps 733 mmHg 69%
    18:00 +26°C° 0.6 mm 1 mps 734 mmHg 74%
    19:00 +23°C° 0.6 mm 0 mps 734 mmHg 79%
    20:00 +24°C° 0.6 mm 1 mps 734 mmHg 81%
    21:00 +22°C° 0.6 mm 1 mps 734 mmHg 84%
    22:00 +20°C° 0.6 mm 2 mps 734 mmHg 86%
    23:00 +19°C° 0.4 mm 2 mps 734 mmHg 87%

    18 July, Thursday

    Time Temperature Precipitation Wind Pressure Humidity
    00:00 +19°C° 0.4 mm 2 mps 734 mmHg 88%
    01:00 +18°C° 0.4 mm 2 mps 734 mmHg 88%
    02:00 +18°C° 0 mm 2 mps 734 mmHg 88%
    03:00 +18°C° 0 mm 2 mps 733 mmHg 87%
    04:00 +18°C° 0 mm 2 mps 733 mmHg 87%
    05:00 +19°C° 0.1 mm 2 mps 733 mmHg 85%
    06:00 +21°C° 0.1 mm 1 mps 733 mmHg 83%
    07:00 +21°C° 0.1 mm 1 mps 733 mmHg 81%
    08:00 +24°C° 0 mm 1 mps 734 mmHg 71%
    09:00 +26°C° 0 mm 1 mps 734 mmHg 62%
    10:00 +28°C° 0 mm 1 mps 734 mmHg 52%
    11:00 +28°C° 0.3 mm 1 mps 734 mmHg 55%
    12:00 +28°C° 0.3 mm 2 mps 733 mmHg 57%
    13:00 +28°C° 0.3 mm 2 mps 733 mmHg 60%
    14:00 +28°C° 1.1 mm 1 mps 733 mmHg 66%
    15:00 +27°C° 1.1 mm 1 mps 733 mmHg 72%
    16:00 +27°C° 1.1 mm 1 mps 733 mmHg 78%
    17:00 +26°C° 1 mm 1 mps 733 mmHg 80%
    18:00 +23°C° 1 mm 0 mps 733 mmHg 82%
    19:00 +23°C° 1 mm 0 mps 734 mmHg 84%
    20:00 +23°C° 0.6 mm 1 mps 734 mmHg 85%
    21:00 +22°C° 0.6 mm 1 mps 735 mmHg 87%
    22:00 +19°C° 0.6 mm 2 mps 735 mmHg 88%
    23:00 +19°C° 0.4 mm 2 mps 735 mmHg 88%

    19 July, Friday

    Time Temperature Precipitation Wind Pressure Humidity
    00:00 +18°C° 0.4 mm 2 mps 735 mmHg 89%
    01:00 +18°C° 0.4 mm 2 mps 735 mmHg 89%
    02:00 +18°C° 0.1 mm 2 mps 735 mmHg 88%
    03:00 +18°C° 0.1 mm 2 mps 735 mmHg 88%
    04:00 +17°C° 0.1 mm 2 mps 735 mmHg 87%
    05:00 +18°C° 0 mm 2 mps 735 mmHg 85%
    06:00 +20°C° 0 mm 1 mps 735 mmHg 83%
    07:00 +21°C° 0 mm 1 mps 736 mmHg 81%
    08:00 +24°C° 0 mm 1 mps 736 mmHg 71%
    09:00 +26°C° 0 mm 1 mps 736 mmHg 61%
    10:00 +29°C° 0 mm 1 mps 736 mmHg 51%
    11:00 +29°C° 0 mm 1 mps 736 mmHg 49%
    12:00 +30°C° 0 mm 1 mps 736 mmHg 48%
    13:00 +30°C° 0 mm 2 mps 736 mmHg 47%
    14:00 +30°C° 0.1 mm 2 mps 736 mmHg 49%
    15:00 +30°C° 0.1 mm 2 mps 735 mmHg 52%
    16:00 +29°C° 0.1 mm 2 mps 735 mmHg 54%
    17:00 +28°C° 0.3 mm 1 mps 736 mmHg 64%
    18:00 +27°C° 0.3 mm 1 mps 736 mmHg 74%
    19:00 +26°C° 0.3 mm 1 mps 736 mmHg 83%
    20:00 +24°C° 0.4 mm 1 mps 737 mmHg 85%
    21:00 +23°C° 0.4 mm 1 mps 737 mmHg 87%
    22:00 +22°C° 0.4 mm 1 mps 737 mmHg 90%
    23:00 +21°C° 0.5 mm 1 mps 737 mmHg 90%

    20 July, Saturday

    Time Temperature Precipitation Wind Pressure Humidity
    00:00 +21°C° 0.5 mm 1 mps 737 mmHg 91%
    01:00 +21°C° 0.5 mm 1 mps 738 mmHg 91%
    02:00 +21°C° 0.1 mm 1 mps 738 mmHg 91%
    03:00 +20°C° 0.1 mm 1 mps 737 mmHg 92%
    04:00 +20°C° 0.1 mm 1 mps 737 mmHg 92%
    05:00 +21°C° 0.1 mm 1 mps 738 mmHg 91%
    06:00 +22°C° 0.1 mm 1 mps 738 mmHg 91%
    07:00 +22°C° 0.1 mm 1 mps 738 mmHg 90%
    08:00 +23°C° 0.3 mm 1 mps 738 mmHg 87%
    09:00 +25°C° 0.3 mm 1 mps 738 mmHg 85%
    10:00 +26°C° 0.3 mm 1 mps 738 mmHg 82%
    11:00 +26°C° 0.9 mm 1 mps 738 mmHg 81%
    12:00 +27°C° 0.9 mm 1 mps 738 mmHg 80%
    13:00 +28°C° 0.9 mm 1 mps 738 mmHg 79%
    14:00 +28°C° 1.3 mm 1 mps 738 mmHg 79%
    15:00 +27°C° 1.3 mm 1 mps 738 mmHg 80%
    16:00 +25°C° 1.3 mm 0 mps 738 mmHg 81%
    17:00 +25°C° 1.2 mm 0 mps 738 mmHg 83%
    18:00 +24°C° 1.2 mm 0 mps 738 mmHg 84%
    19:00 +25°C° 1.2 mm 1 mps 738 mmHg 86%
    20:00 +24°C° 1.8 mm 1 mps 739 mmHg 87%
    21:00 +23°C° 1.8 mm 1 mps 739 mmHg 88%
    22:00 +22°C° 1.8 mm 1 mps 739 mmHg 89%
    23:00 +21°C° 0.1 mm 1 mps 739 mmHg 89%
    Show more